Location: Mason Neck State Park
(38.6428°N, 77.1981°W)
Time: 08:01:32
(UTC-05:00)

Daily predictions for brighter satellites

Satellite Brightness Start Highest point End
(mag) Time Altitude Azimuth Time Altitude Azimuth Time Altitude Azimuth
Milstar 3 4.0 17:31:01 10° WSW 17:37:25 36° S 17:43:37 10° ESE
Cosmos 2298 Rocket 4.1 17:32:37 10° NNW 17:37:57 88° WSW 17:43:14 10° SSE
Meteor 1-21 Rocket 4.4 17:32:23 10° S 17:38:15 71° E 17:44:07 10° NNE
Cosmos 1743 Rocket 4.0 17:35:53 10° SSE 17:40:04 42° E 17:44:17 10° NNE
Cosmos 2360 Rocket 3.2 17:39:38 10° SW 17:45:02 47° WNW 17:50:27 10° N
Atlas Centaur 2 3.7 17:42:09 10° WSW 17:46:34 26° SSW 17:50:16 10° SE
Cosmos 1937 Rocket 3.5 17:42:48 10° NNW 17:48:00 86° ENE 17:53:13 10° SSE
Cosmos 1328 Rocket 3.8 17:43:57 10° N 17:48:15 48° E 17:52:33 10° SSE
CENTAUR R/B 2.6 17:42:40 10° SSW 17:48:39 87° NW 17:55:27 10° NNE
AQUARIUS 4.5 17:46:34 10° S 17:51:03 75° WSW 17:55:34 10° NNW
ALOS 4.1 17:52:30 10° ENE 17:53:32 11° ENE 17:54:35 10° NE
Cosmos 1515 Rocket 4.0 17:49:40 10° N 17:53:54 41° ENE 17:58:06 10° SSE
Cosmos 2333 Rocket 2.7 17:49:58 10° S 17:55:10 39° ESE 18:00:22 10° NE
Cosmos 44 4.5 17:50:59 10° SSE 17:55:25 27° ESE 17:59:39 10° NE
Cosmos 1634 Rocket 4.2 17:49:33 10° N 17:55:30 46° ENE 18:01:23 10° SSE
SKYMED 2 3.8 17:52:05 10° NNE 17:56:18 48° E 18:00:29 10° S
Cosmos 371 Rocket 3.6 17:55:25 10° S 18:00:00 46° ESE 18:04:35 10° NNE
Cosmos 2151 3.8 17:56:32 10° SSE 18:00:10 29° E 18:03:49 10° NNE
Aureole 2 Rocket 4.5 17:59:33 10° ESE 18:01:12 13° E 18:01:49 12° E
Cosmos 1500 Rocket 3.5 18:03:10 10° S 18:07:24 60° E 18:11:42 10° NNE
Cosmos 1151 Rocket 3.4 18:03:58 10° N 18:07:58 38° ENE 18:11:57 10° SSE
Lacrosse 5 4.0 18:08:26 10° WNW 18:11:47 17° NNW 18:15:08 10° NNE
CZ-2C R/B 3.9 18:07:24 10° S 18:12:09 41° W 18:16:48 10° NNW
Cosmos 1340 Rocket 4.1 18:09:32 10° SE 18:12:31 21° E 18:14:01 17° ENE
Cosmos 2219 Rocket 2.2 18:07:08 10° SSW 18:12:45 73° ESE 18:18:22 10° NNE
Cosmos 389 Rocket 4.0 18:09:58 10° NNW 18:13:22 41° W 18:16:43 10° SSW
Abrixas rocket 3.1 18:11:05 10° WNW 18:14:19 49° SW 18:17:33 10° SE
MSX 4.3 18:09:22 10° S 18:15:03 65° WSW 18:20:45 10° NNW
Cosmos 2278 Rocket 2.7 18:12:26 10° N 18:17:42 38° ENE 18:22:57 10° SE
Cosmos 44 Rocket 3.4 18:13:19 10° SSW 18:18:26 72° ESE 18:23:07 12° NE
Meteor 2-10 4.5 18:15:38 10° N 18:20:18 35° ENE 18:25:02 10° SE
SL-14 R/B 3.3 18:20:04 10° S 18:23:52 54° E 18:27:44 10° NNE
NOSS 0 Rocket 3.9 18:19:28 10° SSW 18:25:38 68° ESE 18:31:48 10° NNE
OAO 3 Rocket 4.4 18:21:24 10° W 18:25:55 38° SSW 18:30:23 10° SE
Cosmos 1763 Rocket 4.4 18:21:13 10° SW 18:26:18 49° WNW 18:31:20 10° N
OTV 4 0.4 18:25:02 10° W 18:28:00 75° S 18:29:10 32° ESE
Cosmos 1844 3.7 18:22:27 10° NNW 18:28:15 80° ENE 18:34:02 10° SSE
Cosmos 1484 Rocket 3.6 18:25:58 10° S 18:29:46 55° W 18:33:40 10° NNW
Resurs 01 Rocket 3.0 18:31:09 20° NE 18:31:09 20° NE 18:33:22 10° NNE
COSMOS 2428 4.0 18:30:23 10° SW 18:35:43 40° WNW 18:41:06 10° N
Cosmos 372 Rocket 4.2 18:31:42 10° N 18:36:35 45° ENE 18:41:26 10° SE
Cosmos 1626 4.1 18:35:32 10° SE 18:36:26 15° SE 18:36:26 15° SE
Cosmos 2237 Rocket 2.1 18:36:15 10° SSW 18:41:50 76° ESE 18:46:42 14° NNE
COSMO-SKYMED 1 3.6 18:40:07 10° N 18:44:17 46° WNW 18:48:25 10° SW
SL-16 R/B 2.8 18:40:49 10° SSE 18:45:48 33° ESE 18:46:58 30° E
Cosmos 2084 3.5 18:43:01 10° SW 18:46:54 62° NW 18:48:51 26° NNE
Cosmos 783 Rocket 4.4 18:42:32 10° S 18:47:47 68° ESE 18:51:41 18° NNE
Lacrosse 5 rocket 2.7 18:44:59 10° NNW 18:47:13 22° NNE 18:47:13 22° NNE
Cosmos 304 Rocket 4.1 18:44:00 10° S 18:48:29 41° ESE 18:49:27 36° ENE
NOAA 12 4.0 18:43:35 10° SSE 18:48:49 84° ENE 18:54:05 10° NNW
Cosmos 2279 Rocket 3.9 18:42:55 10° N 18:49:09 74° E 18:55:21 10° SSE
Hubble Space Telescope 3.4 18:47:26 10° SW 18:49:38 14° SSW 18:51:50 10° SSE
Cosmos 540 Rocket 3.4 18:44:36 10° SSW 18:49:46 87° WNW 18:54:24 13° NNE
USA 215 3.2 18:43:30 10° SE 18:50:04 89° NE 18:56:40 10° NW
Cosmos 1300 3.0 18:46:17 10° NNW 18:50:06 68° W 18:53:54 10° S
Cosmos 2297 4.2 18:50:13 10° N 18:55:28 36° ENE 18:55:55 36° ENE
Cosmos 1726 3.0 18:54:23 10° NNW 18:58:02 50° W 19:01:41 10° S
Cosmos 1666 Rocket 4.5 18:54:06 10° SSE 18:56:46 31° SE 18:56:46 31° SE
Haruka 4.3 18:54:45 10° WSW 18:58:57 47° SSE 19:04:42 24° ESE
Meteor 1-11 4.3 18:55:44 10° SSW 19:01:22 79° W 19:07:09 10° N
Cosmos 1125 Rocket 3.7 18:56:34 10° NNW 19:01:46 72° WSW 19:06:55 10° S
Cosmos 1461 4.2 19:00:13 10° S 19:02:39 26° SSE 19:02:39 26° SSE
Cosmos 2180 Rocket 4.3 18:58:45 10° N 19:04:56 81° E 19:11:08 10° S
Nadezhda 4 Rocket 4.0 19:02:16 10° S 19:08:21 58° E 19:13:55 13° NNE
Spot 2 Rocket 3.4 19:06:06 10° SSE 19:11:03 61° ENE 19:16:03 10° N
Cosmos 1538 Rocket 4.2 19:11:28 10° S 19:16:07 52° SE 19:16:07 52° SE
Cosmos 2058 4.0 19:12:55 10° SSW 19:16:50 43° W 19:20:15 13° N
SJ-6B 3.6 19:13:06 10° S 19:17:01 52° W 19:21:03 10° NNW
FengYun 1-2 T 4.1 19:11:33 10° SSE 19:17:08 78° ENE 19:22:41 10° N
Cosmos 1092 Rocket 4.0 19:18:28 10° SSE 19:24:32 56° E 19:24:32 56° E
USA 229 DEB 4.4 19:21:48 10° S 19:26:32 34° SE 19:26:32 34° SE
USA 229 4.4 19:21:56 10° S 19:26:34 34° SE 19:26:34 34° SE
ALOS 2.3 19:25:38 10° S 19:30:17 78° W 19:34:59 10° NNW
Aureole 2 Rocket 4.2 19:32:53 10° SW 19:35:45 34° W 19:35:45 34° W
Cosmos 1703 4.5 19:33:19 10° SSW 19:36:39 40° W 19:36:39 40° W
Cosmos 2333 Rocket 3.9 19:34:39 10° WSW 19:39:29 28° WNW 19:43:40 13° N
FENGYUN 3A 3.9 19:37:28 10° S 19:42:46 66° WSW 19:48:08 10° NNW
Cosmos 2278 Rocket 4.0 19:56:49 10° NW 20:01:36 28° WSW 20:06:21 10° SSW
Resurs 01 Rocket 4.0 20:08:43 18° NW 20:08:43 18° NW 20:10:11 10° NW
H-2A ROCKET BODY 3.9 20:15:40 10° WSW 20:25:47 32° SSW 20:25:47 32° SSW
SL-16 R/B 3.8 20:24:49 10° WSW 20:28:56 31° WNW 20:28:56 31° WNW
